Location: Albuquerque Trailhead
(34.7934°N, 106.3736°W)
Time: 08:15:51
(UTC+00:00)

CAS-4A - Pass Details

Date: 03 April 2023
Orbit: 506 x 523 km, 43.0° (Epoch: 28 May)

Event Time Altitude Azimuth Distance (km) Brightness Sun altitude
Exits shadow 10:00:46 16° 44° (NE) 1,383 ? -33.1°
Drops below altitude 10° 10:01:48 10° 52° (NE) 1,745 ? -32.9°
Sets 10:04:09 0° 60° (ENE) 2,638 ? -32.5°
